W5LND-10 Weather Reports


time (UTC)temp
C
wind
direction
speed
KPH
gust
KPH
rain 1hr
cm
rain 24hr
cm
rain mn
cm
humidity
%
barometer
mb
20260510143056 25 229 4.8 9.7 0.00 0.00 0.00 62 1006.5
20260510142556 25 200 6.4 12.9 0.00 0.00 0.00 62 1006.6
20260510142056 24 263 6.4 16.1 0.00 0.00 0.00 62 1006.4
20260510141556 24 235 8.0 16.1 0.00 0.00 0.00 63 1006.0
20260510141056 24 207 6.4 16.1 0.00 0.00 0.00 63 1006.0
20260510140556 24 254 6.4 16.1 0.00 0.00 0.00 63 1006.0
20260510140056 24 216 8.0 12.9 0.00 0.00 0.00 63 1006.0
20260510135556 24 225 9.7 25.7 0.00 0.00 0.00 63 1006.0
20260510135056 24 222 9.7 17.7 0.00 0.00 0.00 63 1005.8
20260510134556 24 185 9.7 17.7 0.00 0.00 0.00 63 1005.7
20260510134056 23 218 11.3 20.9 0.00 0.00 0.00 64 1005.7
20260510133556 23 232 12.9 32.2 0.00 0.00 0.00 64 1005.5
20260510133056 23 202 12.9 20.9 0.00 0.00 0.00 65 1005.1
20260510132556 23 246 16.1 33.8 0.00 0.00 0.00 65 1004.8
20260510132056 23 234 20.9 33.8 0.00 0.00 0.00 66 1004.7
20260510131556 23 234 22.5 40.2 0.00 0.00 0.00 66 1004.5
20260510131056 23 232 22.5 40.2 0.00 0.00 0.00 67 1004.3
20260510130556 22 235 22.5 40.2 0.00 0.00 0.00 68 1004.1
20260510130056 22 240 22.5 33.8 0.00 0.00 0.00 68 1004.2
20260510125556 22 231 20.9 33.8 0.00 0.00 0.00 69 1004.0
20260510125056 22 244 22.5 35.4 0.00 0.00 0.00 69 1003.9
20260510124556 22 231 24.1 43.5 0.00 0.00 0.00 70 1003.9
20260510124056 22 243 24.1 43.5 0.00 0.00 0.00 70 1003.9
20260510123556 22 227 22.5 43.5 0.00 0.00 0.00 69 1004.0
20260510123056 22 245 22.5 37.0 0.00 0.00 0.00 69 1003.9
20260510122556 22 252 24.1 40.2 0.00 0.00 0.00 69 1003.8
20260510122056 22 275 25.7 40.2 0.00 0.00 0.00 69 1003.7
20260510121556 22 229 24.1 41.8 0.00 0.00 0.00 69 1003.6
20260510121056 22 259 22.5 40.2 0.00 0.00 0.00 69 1003.5
20260510120556 22 260 22.5 38.6 0.00 0.00 0.00 69 1003.3
20260510120056 22 252 20.9 41.8 0.00 0.00 0.00 69 1003.2
20260510115556 22 248 20.9 37.0 0.00 0.00 0.00 69 1003.2
20260510115056 22 252 20.9 38.6 0.00 0.00 0.00 68 1003.0
20260510114556 22 235 22.5 38.6 0.00 0.00 0.00 68 1002.9
20260510114056 22 235 22.5 41.8 0.00 0.00 0.00 68 1002.9
20260510113556 22 254 22.5 41.8 0.00 0.00 0.00 68 1002.9
20260510113056 22 251 22.5 35.4 0.00 0.00 0.00 67 1002.9
20260510112556 22 239 20.9 33.8 0.00 0.00 0.00 67 1002.8
20260510112056 22 241 20.9 35.4 0.00 0.00 0.00 67 1002.9
20260510111556 22 242 20.9 37.0 0.00 0.00 0.00 67 1002.9
20260510111056 22 248 20.9 37.0 0.00 0.00 0.00 67 1003.0
20260510110556 22 230 20.9 32.2 0.00 0.00 0.00 67 1002.9
20260510110056 22 248 22.5 35.4 0.00 0.00 0.00 67 1003.0
20260510105556 22 261 22.5 40.2 0.00 0.00 0.00 67 1002.9
20260510105056 22 238 24.1 35.4 0.00 0.00 0.00 67 1003.0
20260510104556 22 255 22.5 40.2 0.00 0.00 0.00 66 1003.0
20260510104056 22 249 24.1 37.0 0.00 0.00 0.00 66 1003.0
20260510103556 22 240 24.1 43.5 0.00 0.00 0.00 66 1003.1
20260510103056 22 257 24.1 40.2 0.00 0.00 0.00 66 1003.0
20260510102556 22 244 22.5 40.2 0.00 0.00 0.00 66 1002.9
20260510102056 22 244 22.5 32.2 0.00 0.00 0.00 66 1002.8
20260510101556 22 249 22.5 35.4 0.00 0.00 0.00 65 1003.0
20260510101056 22 249 20.9 32.2 0.00 0.00 0.00 65 1003.0
20260510100556 22 246 22.5 33.8 0.00 0.00 0.00 65 1002.9
20260510100056 22 237 24.1 33.8 0.00 0.00 0.00 65 1002.9
20260510095556 22 241 22.5 38.6 0.00 0.00 0.00 64 1003.0
20260510095056 22 248 19.3 38.6 0.00 0.00 0.00 63 1002.9
20260510094556 22 249 20.9 35.4 0.00 0.00 0.00 63 1002.9
20260510094056 22 232 20.9 33.8 0.00 0.00 0.00 63 1002.8
20260510093556 22 246 19.3 38.6 0.00 0.00 0.00 62 1002.7
20260510093056 22 243 19.3 37.0 0.00 0.00 0.00 61 1002.8
20260510092556 22 223 20.9 35.4 0.00 0.00 0.00 61 1002.8
20260510092056 22 238 22.5 38.6 0.00 0.00 0.00 60 1002.7
20260510091556 22 217 22.5 37.0 0.00 0.00 0.00 60 1002.8
20260510091056 23 236 20.9 32.2 0.00 0.00 0.00 59 1002.7
20260510090556 23 252 20.9 30.6 0.00 0.00 0.00 59 1002.7
20260510090056 23 230 20.9 48.3 0.00 0.00 0.00 59 1002.8
20260510085557 23 238 20.9 37.0 0.00 0.00 0.00 58 1002.7
20260510085057 23 240 19.3 33.8 0.00 0.00 0.00 58 1002.7
20260510084557 23 231 20.9 35.4 0.00 0.00 0.00 58 1002.8
20260510084057 23 248 20.9 38.6 0.00 0.00 0.00 58 1002.8
20260510083556 23 229 19.3 35.4 0.00 0.00 0.00 58 1002.9
20260510083057 23 254 19.3 35.4 0.00 0.00 0.00 58 1002.8
20260510082557 23 257 19.3 32.2 0.00 0.00 0.00 58 1002.8
20260510082057 23 257 19.3 30.6 0.00 0.00 0.00 58 1002.9
20260510081557 23 226 19.3 29.0 0.00 0.00 0.00 57 1002.9
20260510081057 23 267 19.3 37.0 0.00 0.00 0.00 57 1003.0
20260510080557 23 240 19.3 33.8 0.00 0.00 0.00 57 1003.0
20260510080057 23 252 20.9 35.4 0.00 0.00 0.00 57 1002.8
20260510075557 23 247 22.5 33.8 0.00 0.00 0.00 56 1002.8
20260510075057 23 225 22.5 37.0 0.00 0.00 0.00 56 1002.8
20260510074557 23 254 20.9 37.0 0.00 0.00 0.00 56 1002.9
20260510074057 23 248 20.9 35.4 0.00 0.00 0.00 55 1002.8
20260510073557 24 238 22.5 38.6 0.00 0.00 0.00 55 1002.9
20260510073057 24 247 22.5 35.4 0.00 0.00 0.00 54 1002.8
20260510072557 24 240 20.9 32.2 0.00 0.00 0.00 53 1003.0
20260510072057 24 261 20.9 37.0 0.00 0.00 0.00 53 1003.0
20260510071557 24 248 19.3 35.4 0.00 0.00 0.00 52 1002.9
20260510071057 25 239 19.3 30.6 0.00 0.00 0.00 52 1003.0
20260510070557 25 230 20.9 33.8 0.00 0.00 0.00 51 1002.9
20260510070057 25 249 20.9 35.4 0.00 0.00 0.00 51 1002.9
20260510065557 25 200 20.9 35.4 0.00 0.00 0.00 50 1002.9
20260510065057 25 259 22.5 35.4 0.00 0.00 0.00 50 1003.0
20260510064557 25 222 22.5 35.4 0.00 0.00 0.00 50 1003.0
20260510064057 25 247 20.9 33.8 0.00 0.00 0.00 49 1003.0
20260510063557 25 232 20.9 37.0 0.00 0.00 0.00 48 1002.9
20260510063057 25 261 20.9 29.0 0.00 0.00 0.00 47 1002.9
20260510062557 25 221 19.3 32.2 0.00 0.00 0.00 46 1003.0
20260510062057 25 226 19.3 30.6 0.00 0.00 0.00 46 1002.9
20260510061557 25 223 20.9 37.0 0.00 0.00 0.00 46 1002.9
20260510061057 25 238 22.5 37.0 0.00 0.00 0.00 45 1003.0
20260510060557 25 252 20.9 38.6 0.00 0.00 0.00 45 1003.0
20260510060057 25 226 19.3 32.2 0.00 0.00 0.00 46 1003.0
20260510055557 25 242 20.9 35.4 0.00 0.00 0.00 45 1003.0
20260510055057 26 229 22.5 38.6 0.00 0.00 0.00 45 1003.1
20260510054557 26 244 22.5 33.8 0.00 0.00 0.00 45 1003.0
20260510054057 26 183 20.9 35.4 0.00 0.00 0.00 45 1003.0
20260510053557 26 232 20.9 32.2 0.00 0.00 0.00 45 1003.1
20260510053057 26 237 20.9 30.6 0.00 0.00 0.00 44 1003.1
20260510052557 26 242 22.5 38.6 0.00 0.00 0.00 43 1003.2
20260510052057 26 193 22.5 35.4 0.00 0.00 0.00 42 1003.1
20260510051557 26 230 19.3 37.0 0.00 0.00 0.00 41 1003.0
20260510051057 26 234 19.3 37.0 0.00 0.00 0.00 40 1003.0
20260510050557 26 238 17.7 35.4 0.00 0.00 0.00 39 1003.0
20260510050057 26 210 17.7 30.6 0.00 0.00 0.00 39 1003.2
20260510045557 26 234 17.7 37.0 0.00 0.00 0.00 39 1003.2
20260510045057 27 227 16.1 24.1 0.00 0.00 0.00 38 1003.2
20260510044557 27 204 17.7 30.6 0.00 0.00 0.00 37 1003.2
20260510044057 27 201 16.1 35.4 0.00 0.00 0.00 36 1003.3
20260510043557 27 214 16.1 29.0 0.00 0.00 0.00 36 1003.4
20260510043057 27 229 16.1 30.6 0.00 0.00 0.00 35 1003.3
20260510042557 27 216 14.5 24.1 0.00 0.00 0.00 35 1003.4
20260510042057 27 211 17.7 27.4 0.00 0.00 0.00 35 1003.3
20260510041557 27 227 17.7 32.2 0.00 0.00 0.00 35 1003.3
20260510041057 27 250 17.7 32.2 0.00 0.00 0.00 35 1003.3
20260510040557 27 245 16.1 29.0 0.00 0.00 0.00 35 1003.3
20260510040057 27 240 16.1 29.0 0.00 0.00 0.00 35 1003.3
20260510035557 27 234 16.1 29.0 0.00 0.00 0.00 34 1003.3
20260510035057 27 227 16.1 25.7 0.00 0.00 0.00 34 1003.3
20260510034557 27 210 16.1 27.4 0.00 0.00 0.00 34 1003.3
20260510034057 28 205 16.1 29.0 0.00 0.00 0.00 33 1003.3
20260510033557 28 222 16.1 29.0 0.00 0.00 0.00 33 1003.3
20260510033057 28 240 16.1 29.0 0.00 0.00 0.00 33 1003.3
20260510032557 28 213 14.5 24.1 0.00 0.00 0.00 33 1003.2
20260510032057 28 247 14.5 27.4 0.00 0.00 0.00 32 1003.1
20260510031557 28 207 14.5 24.1 0.00 0.00 0.00 32 1003.1
20260510031057 28 211 12.9 27.4 0.00 0.00 0.00 31 1003.0
20260510030557 28 225 14.5 24.1 0.00 0.00 0.00 31 1003.0
20260510030057 28 205 14.5 27.4 0.00 0.00 0.00 31 1003.0
20260510025557 28 211 14.5 27.4 0.00 0.00 0.00 31 1003.0
20260510025057 28 204 14.5 27.4 0.00 0.00 0.00 31 1003.0
20260510024557 28 231 12.9 24.1 0.00 0.00 0.00 31 1002.8
20260510024057 29 192 12.9 27.4 0.00 0.00 0.00 30 1002.8
20260510023557 29 252 12.9 20.9 0.00 0.00 0.00 30 1002.8
20260510023058 29 212 12.9 20.9 0.00 0.00 0.00 29 1002.8
20260510022557 29 246 12.9 19.3 0.00 0.00 0.00 28 1002.7
20260510022057 29 190 11.3 22.5 0.00 0.00 0.00 28 1002.7
20260510021557 29 207 9.7 19.3 0.00 0.00 0.00 27 1002.6
20260510021057 30 224 9.7 14.5 0.00 0.00 0.00 27 1002.6
20260510020557 30 209 9.7 14.5 0.00 0.00 0.00 27 1002.5
20260510020057 30 207 9.7 19.3 0.00 0.00 0.00 27 1002.4
20260510015557 30 232 9.7 16.1 0.00 0.00 0.00 26 1002.5
20260510015057 30 224 8.0 14.5 0.00 0.00 0.00 25 1002.4
20260510014557 30 217 8.0 16.1 0.00 0.00 0.00 25 1002.5
20260510014057 30 219 8.0 16.1 0.00 0.00 0.00 24 1002.4
20260510013557 31 215 8.0 12.9 0.00 0.00 0.00 24 1002.4
20260510013057 31 231 8.0 16.1 0.00 0.00 0.00 24 1002.3
20260510012557 31 227 9.7 12.9 0.00 0.00 0.00 23 1002.3
20260510012057 31 215 11.3 16.1 0.00 0.00 0.00 23 1002.2
20260510011557 31 238 11.3 22.5 0.00 0.00 0.00 22 1002.1
20260510011057 31 241 11.3 19.3 0.00 0.00 0.00 23 1002.2
20260510010557 32 202 11.3 20.9 0.00 0.00 0.00 22 1002.2
20260510010057 32 211 12.9 22.5 0.00 0.00 0.00 22 1002.2
20260510005557 32 207 12.9 27.4 0.00 0.00 0.00 22 1002.2
20260510005057 32 198 14.5 24.1 0.00 0.00 0.00 22 1002.0
20260510004557 32 228 16.1 24.1 0.00 0.00 0.00 22 1002.2
20260510004057 32 232 11.3 22.5 0.00 0.00 0.00 21 1002.2
20260510003557 33 261 6.4 19.3 0.00 0.00 0.00 21 1002.2
20260510003058 33 257 8.0 14.5 0.00 0.00 0.00 22 1002.3
20260510002558 33 254 12.9 25.7 0.00 0.00 0.00 21 1002.2
20260510002058 33 253 11.3 20.9 0.00 0.00 0.00 21 1002.3
20260510001558 33 249 11.3 20.9 0.00 0.00 0.00 22 1002.2
20260510001058 33 219 9.7 19.3 0.00 0.00 0.00 22 1002.3
20260510000558 33 230 9.7 19.3 0.00 0.00 0.00 22 1002.3
20260510000058 33 255 9.7 16.1 0.00 0.00 0.00 22 1002.4
20260509235558 33 263 12.9 20.9 0.00 0.00 0.00 23 1002.4
20260509235058 33 221 11.3 27.4 0.00 0.00 0.00 23 1002.5
20260509234558 33 290 9.7 20.9 0.00 0.00 0.00 22 1002.4
20260509234058 33 252 11.3 17.7 0.00 0.00 0.00 22 1002.4
20260509233558 33 220 8.0 24.1 0.00 0.00 0.00 22 1002.4
20260509233058 33 245 8.0 12.9 0.00 0.00 0.00 24 1002.4
20260509232558 33 222 9.7 20.9 0.00 0.00 0.00 22 1002.5
20260509232058 34 248 11.3 16.1 0.00 0.00 0.00 23 1002.5
20260509231558 33 257 9.7 24.1 0.00 0.00 0.00 23 1002.6
20260509231058 33 244 9.7 14.5 0.00 0.00 0.00 22 1002.7
20260509230558 33 238 12.9 17.7 0.00 0.00 0.00 23 1002.7
20260509230058 34 236 11.3 22.5 0.00 0.00 0.00 22 1002.7
20260509225558 34 245 8.0 22.5 0.00 0.00 0.00 21 1002.7
20260509225058 34 232 8.0 20.9 0.00 0.00 0.00 21 1002.7
20260509224558 34 226 8.0 14.5 0.00 0.00 0.00 22 1002.8
20260509224058 34 271 11.3 20.9 0.00 0.00 0.00 22 1002.8
20260509223558 34 253 14.5 24.1 0.00 0.00 0.00 22 1002.9
20260509223058 34 249 11.3 29.0 0.00 0.00 0.00 22 1002.8
20260509222558 35 246 8.0 29.0 0.00 0.00 0.00 21 1002.7
20260509222058 34 198 9.7 17.7 0.00 0.00 0.00 22 1002.7
20260509221558 34 286 14.5 20.9 0.00 0.00 0.00 22 1002.9
20260509221058 34 227 14.5 30.6 0.00 0.00 0.00 23 1002.9
20260509220558 34 269 9.7 27.4 0.00 0.00 0.00 22 1003.0
20260509220058 34 231 11.3 19.3 0.00 0.00 0.00 23 1003.0
20260509215558 34 254 11.3 24.1 0.00 0.00 0.00 22 1003.1
20260509215058 35 249 6.4 25.7 0.00 0.00 0.00 22 1003.1
20260509214558 35 259 8.0 19.3 0.00 0.00 0.00 24 1003.0
20260509214058 34 256 12.9 20.9 0.00 0.00 0.00 23 1003.3
20260509213558 34 267 11.3 27.4 0.00 0.00 0.00 24 1003.3
20260509213058 34 267 8.0 14.5 0.00 0.00 0.00 24 1003.4
20260509212558 33 259 12.9 17.7 0.00 0.00 0.00 24 1003.5
20260509212058 34 275 12.9 24.1 0.00 0.00 0.00 24 1003.5
20260509211558 34 288 8.0 22.5 0.00 0.00 0.00 24 1003.5
20260509211058 35 283 8.0 16.1 0.00 0.00 0.00 24 1003.6
20260509210558 35 226 9.7 20.9 0.00 0.00 0.00 25 1003.7
20260509210058 35 255 8.0 16.1 0.00 0.00 0.00 23 1003.8
20260509205558 35 244 11.3 16.1 0.00 0.00 0.00 23 1003.9
20260509205113 34 293 11.3 25.7 0.00 0.00 0.00 23 1003.9
20260509204558 33 254 11.3 22.5 0.00 0.00 0.00 24 1004.1
20260509204058 33 207 12.9 24.1 0.00 0.00 0.00 24 1004.1
20260509203558 33 197 12.9 24.1 0.00 0.00 0.00 25 1004.1
20260509203058 33 251 11.3 27.4 0.00 0.00 0.00 24 1004.4
20260509202558 33 208 9.7 20.9 0.00 0.00 0.00 23 1004.4
20260509202058 33 193 11.3 20.9 0.00 0.00 0.00 22 1004.5
20260509201558 33 255 11.3 25.7 0.00 0.00 0.00 26 1004.6
20260509201058 33 213 9.7 29.0 0.00 0.00 0.00 26 1004.6
20260509200558 33 183 8.0 12.9 0.00 0.00 0.00 26 1004.8
20260509200058 33 239 9.7 20.9 0.00 0.00 0.00 27 1004.9
20260509195558 33 246 9.7 20.9 0.00 0.00 0.00 28 1005.0
20260509195058 33 224 9.7 20.9 0.00 0.00 0.00 27 1005.0
20260509194558 33 232 11.3 19.3 0.00 0.00 0.00 27 1005.2
20260509194058 33 211 9.7 22.5 0.00 0.00 0.00 29 1005.2
20260509193558 33 189 9.7 20.9 0.00 0.00 0.00 29 1005.2
20260509193058 33 228 9.7 17.7 0.00 0.00 0.00 28 1005.4
20260509192558 33 236 9.7 20.9 0.00 0.00 0.00 28 1005.4
20260509192058 32 232 11.3 20.9 0.00 0.00 0.00 27 1005.5
20260509191558 32 288 9.7 16.1 0.00 0.00 0.00 29 1005.4
20260509191058 32 266 11.3 22.5 0.00 0.00 0.00 29 1005.6
20260509190558 32 219 11.3 25.7 0.00 0.00 0.00 28 1005.6
20260509190058 32 238 11.3 19.3 0.00 0.00 0.00 30 1005.6
20260509185558 32 238 11.3 22.5 0.00 0.00 0.00 31 1005.6
20260509185058 32 256 9.7 17.7 0.00 0.00 0.00 32 1005.6
20260509184558 32 240 9.7 19.3 0.00 0.00 0.00 31 1005.8
20260509184058 32 242 8.0 22.5 0.00 0.00 0.00 33 1005.9
20260509183558 32 232 8.0 16.1 0.00 0.00 0.00 34 1006.0
20260509183058 32 252 9.7 19.3 0.00 0.00 0.00 34 1006.0
20260509182558 32 253 8.0 24.1 0.00 0.00 0.00 34 1006.1
20260509182058 32 259 8.0 14.5 0.00 0.00 0.00 34 1006.1
20260509181558 32 207 6.4 16.1 0.00 0.00 0.00 35 1006.2
20260509181058 32 190 8.0 11.3 0.00 0.00 0.00 34 1006.2
20260509180558 31 251 6.4 19.3 0.00 0.00 0.00 35 1006.4
20260509180058 31 175 8.0 12.9 0.00 0.00 0.00 36 1006.5
20260509175558 31 259 8.0 24.1 0.00 0.00 0.00 36 1006.6
20260509175058 31 207 8.0 17.7 0.00 0.00 0.00 36 1006.7
20260509174558 31 200 9.7 27.4 0.00 0.00 0.00 37 1006.8
20260509174058 30 271 9.7 17.7 0.00 0.00 0.00 37 1006.9
20260509173600 30 284 9.7 25.7 0.00 0.00 0.00 38 1006.9
20260509173058 30 304 9.7 19.3 0.00 0.00 0.00 39 1006.9
20260509172558 30 253 9.7 16.1 0.00 0.00 0.00 39 1007.0
20260509172058 30 244 8.0 19.3 0.00 0.00 0.00 39 1007.1
20260509171558 30 266 8.0 12.9 0.00 0.00 0.00 39 1007.2
20260509171058 30 225 9.7 19.3 0.00 0.00 0.00 40 1007.2
20260509170558 30 271 9.7 19.3 0.00 0.00 0.00 41 1007.2
20260509170058 30 280 8.0 14.5 0.00 0.00 0.00 43 1007.3
20260509165558 29 259 6.4 20.9 0.00 0.00 0.00 44 1007.4
20260509165058 28 290 8.0 14.5 0.00 0.00 0.00 45 1007.4
20260509164558 28 215 9.7 14.5 0.00 0.00 0.00 46 1007.5
20260509164058 28 275 8.0 16.1 0.00 0.00 0.00 46 1007.6
20260509163558 28 285 8.0 16.1 0.00 0.00 0.00 46 1007.7
20260509163058 28 294 8.0 16.1 0.00 0.00 0.00 47 1007.7
20260509162558 28 306 9.7 17.7 0.00 0.00 0.00 47 1007.7
20260509162058 28 254 9.7 20.9 0.00 0.00 0.00 48 1007.9
20260509161558 27 290 9.7 16.1 0.00 0.00 0.00 50 1007.8
20260509161058 27 299 11.3 20.9 0.00 0.00 0.00 51 1007.8
20260509160559 27 246 9.7 24.1 0.00 0.00 0.00 51 1007.8
20260509160059 27 234 11.3 17.7 0.00 0.00 0.00 53 1007.8
20260509155558 26 247 11.3 22.5 0.00 0.00 0.00 53 1007.9
20260509155059 26 238 9.7 20.9 0.00 0.00 0.00 53 1008.0
20260509154559 26 200 9.7 16.1 0.00 0.00 0.00 54 1008.0
20260509154059 26 240 11.3 17.7 0.00 0.00 0.00 55 1008.1
20260509153559 26 244 11.3 22.5 0.00 0.00 0.00 55 1008.1
20260509153059 25 290 11.3 24.1 0.00 0.00 0.00 57 1008.0
20260509152559 25 242 11.3 19.3 0.00 0.00 0.00 59 1008.1
20260509152059 25 246 9.7 22.5 0.00 0.00 0.00 59 1008.1
20260509151559 25 244 8.0 14.5 0.00 0.00 0.00 61 1008.1
20260509151059 24 232 8.0 14.5 0.00 0.00 0.00 61 1008.3
20260509150559 24 251 8.0 17.7 0.00 0.00 0.00 62 1008.3
20260509150059 24 256 8.0 14.5 0.00 0.00 0.00 63 1008.4
20260509145559 23 242 8.0 19.3 0.00 0.00 0.00 64 1008.4
20260509145059 23 242 8.0 16.1 0.00 0.00 0.00 66 1008.5
20260509144559 23 245 9.7 16.1 0.00 0.00 0.00 67 1008.4
20260509144059 22 238 9.7 17.7 0.00 0.00 0.00 68 1008.5
20260509143559 22 235 9.7 19.3 0.00 0.00 0.00 69 1008.5